Location: Olda
(45.8833°N, 9.5500°E)
Time: 07:14:30
(UTC+00:00)

ARGOS - Pass Details

Date: 03 March 2021
Orbit: 819 x 835 km, 98.4° (Epoch: 10 April)

Event Time Altitude Azimuth Distance (km) Brightness Sun altitude
Rises 17:48:54 0° 151° (SSE) 3,367 6.1 -7.3°
Reaches altitude 10° 17:51:17 10° 147° (SSE) 2,439 5.3 -7.8°
Maximum altitude 17:56:33 56° 70° (ENE) 987 3.3 -8.7°
Drops below altitude 10° 18:01:53 10° 354° (N) 2,458 5.7 -9.6°
Sets 18:04:17 0° 350° (N) 3,396 6.5 -10.0°
